Theta_e
292 292 292 291 292 292 293 292 293 294 294 295 295 294 292 292 289 286 284 285 285 286 287 285 286 288 288 287 288 286 287 286 285 287 286 285 285 283 283 285 286 287 287 287 287 287 288 289 289 289 290 291 291 292 293 293 293 293 293 294 295 296 296 297 297 297 297 298 298 299 299 299 299 299
291 291 291 291 291 292 291 291 291 292 292 292 293 292 293 293 290 290 287 287 288 287 286 287 286 286 286 287 287 286 287 284 284 286 285 285 284 282 283 284 285 286 286 286 286 287 288 288 288 289 290 290 291 292 292 292 292 292 293 294 294 295 296 296 296 296 296 297 297 298 298 298 299 299
290 290 290 290 290 291 291 290 290 291 291 291 291 291 292 292 292 290 289 286 288 289 284 286 288 285 286 286 286 286 286 284 283 285 285 284 282 280 282 282 283 284 285 285 286 286 287 288 288 289 289 290 290 291 291 291 291 291 292 293 294 294 295 295 294 295 295 296 297 297 297 298 298 299
289 289 288 289 289 290 290 289 289 289 290 290 290 290 290 290 290 290 289 287 286 287 287 286 286 286 285 285 284 284 285 284 282 284 283 283 281 282 283 282 282 283 284 284 285 286 287 287 288 288 289 289 289 289 290 290 290 290 291 292 293 293 293 293 294 294 294 295 295 296 296 296 297 298
288 288 287 288 288 290 289 289 289 288 289 289 289 289 289 289 288 288 288 285 285 284 286 287 285 285 285 283 284 284 284 283 282 282 283 283 282 283 283 284 282 282 283 284 284 285 286 287 288 288 288 288 288 289 289 289 289 290 291 291 291 292 293 293 293 293 293 294 294 294 295 295 296 296
287 287 287 287 287 288 287 288 287 288 287 287 287 287 288 287 287 288 286 285 286 282 283 284 284 283 284 282 284 283 283 283 283 282 282 283 283 282 283 283 284 282 282 283 284 285 286 287 288 288 287 287 288 288 289 289 289 289 290 290 290 291 291 291 291 292 292 293 293 294 294 294 295 295
286 286 286 286 286 287 286 286 287 287 286 286 286 286 287 286 286 286 287 285 284 283 281 283 282 282 282 282 282 283 283 283 283 281 282 282 282 283 283 283 284 283 283 284 285 285 286 286 286 286 287 287 287 288 288 288 288 289 289 289 289 289 289 289 290 290 291 292 293 293 293 294 294 295
286 285 285 285 285 285 284 285 285 285 285 285 284 285 285 285 285 286 286 286 285 284 281 281 281 282 281 281 283 282 282 281 281 281 282 283 282 282 283 282 283 283 283 284 284 285 285 285 285 285 286 286 287 287 287 288 288 288 288 288 288 288 288 288 288 289 289 290 291 292 292 293 293 294
285 285 284 285 285 284 283 284 284 284 283 283 283 283 284 284 285 284 284 284 285 284 282 281 281 282 281 282 281 281 279 280 280 281 281 281 282 282 283 283 283 283 283 283 283 283 283 284 284 285 285 286 286 286 287 287 287 287 287 287 286 287 287 287 287 288 289 289 290 291 292 293 293 293
284 284 284 284 284 283 283 283 283 283 282 282 282 282 282 283 283 283 283 283 283 283 283 281 279 280 279 279 279 280 280 280 279 280 280 281 281 281 281 282 283 283 283 283 283 282 282 283 283 284 284 285 285 286 286 286 286 286 285 285 285 285 286 286 287 288 289 289 289 289 290 291 291 292
284 284 283 283 283 283 283 283 283 282 281 282 282 282 282 282 282 282 282 282 282 282 282 281 280 279 279 279 278 279 280 281 281 280 280 279 281 282 281 282 283 282 282 282 282 283 283 283 283 283 283 284 285 285 285 285 285 284 284 284 284 285 285 286 287 288 288 288 288 288 288 289 290 291
284 284 283 283 283 283 283 283 282 282 281 282 282 283 282 282 281 282 282 282 281 281 281 280 279 279 278 278 280 281 279 278 279 280 281 280 281 280 281 281 281 282 282 282 282 282 282 282 283 282 283 282 282 283 283 283 282 282 283 283 284 284 285 286 287 287 287 287 287 288 288 288 289 290
284 284 284 283 283 283 283 284 284 284 284 283 282 282 282 282 281 282 281 281 280 280 280 279 279 278 278 278 278 278 277 277 278 280 280 280 281 281 280 280 281 281 281 282 282 282 283 282 282 281 281 281 281 281 281 281 282 282 283 283 284 284 285 286 286 286 286 287 287 287 288 288 288 288
283 283 283 283 283 283 283 284 284 285 285 285 284 283 282 282 282 281 281 280 280 280 279 279 278 277 277 278 278 278 279 280 281 280 279 278 280 279 279 280 280 282 281 281 280 281 282 281 280 280 280 281 281 281 281 282 282 282 283 283 284 284 285 285 285 286 286 286 286 287 287 287 287 288
283 283 283 283 283 283 283 283 284 286 286 285 285 284 284 284 283 281 280 279 280 279 279 279 278 278 277 278 279 279 280 280 280 280 280 279 278 277 277 278 281 282 281 280 280 280 281 280 277 278 278 279 280 280 281 281 282 282 283 283 284 284 284 285 286 286 286 286 286 286 287 287 287 287
283 283 283 283 283 283 283 283 283 284 285 285 285 285 284 284 284 285 282 280 278 278 278 278 278 279 278 279 279 279 280 279 279 280 279 279 278 277 277 278 279 281 281 279 279 278 280 279 277 277 278 279 280 280 281 282 282 283 283 283 284 284 284 285 285 285 285 285 286 286 286 286 286 286
283 283 283 282 282 283 283 283 282 282 283 284 285 284 284 283 284 284 284 283 282 280 279 279 278 279 279 278 279 280 279 281 278 279 277 278 278 278 278 278 279 280 281 278 276 275 277 278 276 276 278 279 280 280 281 282 282 283 283 283 283 283 284 284 284 284 285 285 285 285 286 286 285 286
283 283 282 282 282 282 282 283 282 282 282 282 283 282 282 281 281 283 283 283 281 280 280 280 279 280 280 279 279 280 281 280 278 277 276 277 277 277 277 279 280 280 280 276 276 273 275 277 276 275 277 279 279 279 280 281 282 282 282 282 283 283 284 284 284 284 284 284 284 285 285 285 285 285
283 283 283 282 282 282 282 282 282 281 281 281 281 280 280 280 280 281 281 280 280 278 278 279 280 280 280 280 281 281 281 280 279 279 278 278 278 278 279 279 279 278 279 277 275 270 275 277 276 276 277 278 278 279 280 280 281 282 282 282 283 283 283 283 283 283 283 283 284 284 284 284 284 284
283 283 282 281 281 281 281 282 283 282 282 280 280 279 279 279 279 280 281 282 281 280 279 279 280 279 280 281 281 281 280 279 279 279 278 277 275 274 274 273 275 274 277 277 274 272 273 276 275 275 277 277 276 277 278 280 281 281 282 282 282 282 283 283 282 282 282 283 283 283 283 283 284 284
283 282 281 281 281 280 280 282 284 284 282 280 279 279 278 278 278 278 280 282 282 281 281 281 282 282 282 282 283 283 282 279 279 277 274 273 274 273 272 272 273 273 275 275 275 273 271 274 274 274 275 276 276 276 277 278 279 281 281 281 282 282 282 281 281 281 282 282 282 283 283 283 283 282
283 282 282 282 281 280 280 282 284 284 282 279 279 278 277 276 276 277 279 280 280 282 281 281 282 282 282 282 282 282 282 281 280 275 273 274 274 272 272 271 272 273 274 274 275 271 271 274 275 273 274 274 274 275 276 277 278 279 280 280 281 281 281 280 281 281 281 281 282 282 282 282 281 280
283 282 282 282 281 280 280 283 284 284 283 279 278 278 277 276 275 277 279 278 278 278 278 278 279 280 281 281 280 280 281 281 280 277 275 274 273 272 272 271 271 269 271 274 275 270 271 273 273 273 270 269 273 275 276 276 277 277 277 276 276 278 279 279 280 280 280 281 281 281 281 281 281 279
281 281 280 281 283 283 282 283 284 284 284 280 279 279 277 276 275 278 278 278 279 278 278 278 279 279 279 279 279 279 279 280 278 277 275 274 274 272 271 271 270 269 271 273 275 271 272 273 271 274 271 268 267 273 275 275 276 275 276 275 275 277 278 278 278 279 280 280 280 280 280 280 280 278
281 280 279 279 282 283 283 283 283 284 284 283 279 279 277 278 278 280 277 278 280 278 278 278 278 278 278 276 276 276 275 274 274 274 275 274 274 272 270 270 269 269 271 274 275 272 269 272 270 271 269 269 269 269 272 273 274 274 275 275 274 275 276 276 277 276 278 278 279 279 279 279 279 278
281 281 280 278 280 282 283 283 283 284 284 284 280 279 281 281 281 279 278 278 279 278 277 277 276 275 274 273 272 273 273 273 273 273 273 273 273 273 272 271 269 268 268 273 274 272 270 269 269 268 268 268 268 270 269 270 272 273 274 275 275 275 275 275 276 276 276 276 276 277 277 278 279 280
281 281 279 278 280 281 282 283 283 283 284 284 281 282 282 281 281 280 277 277 277 276 276 275 274 273 272 271 270 271 271 272 272 272 272 272 272 272 272 272 272 271 272 272 273 272 270 268 270 268 267 268 267 268 268 268 270 274 273 274 274 275 275 275 274 275 275 275 276 277 278 278 278 279
282 280 279 278 280 281 282 282 283 283 283 282 284 283 282 282 281 277 276 276 275 275 274 273 272 271 271 271 270 270 271 271 271 271 271 271 271 271 271 271 271 272 271 271 271 271 270 268 268 269 268 267 266 265 266 270 270 271 270 273 274 274 274 275 274 274 275 275 275 275 275 275 275 275
282 281 280 280 280 281 281 282 282 282 283 284 284 283 282 281 279 276 275 275 274 273 272 272 272 271 270 271 271 271 271 271 271 270 270 270 270 270 270 269 269 269 269 269 269 270 269 269 268 269 268 268 267 267 267 267 269 269 270 270 269 272 273 274 274 273 274 274 274 274 274 274 274 275
283 282 281 280 280 280 280 280 280 280 280 282 283 283 282 279 278 276 275 274 272 271 271 271 271 270 270 270 271 271 270 269 268 268 268 267 266 267 266 266 266 267 268 268 269 269 269 269 269 269 268 268 268 267 268 267 267 269 270 269 270 272 273 273 273 273 273 273 273 273 274 274 274 274
282 282 280 279 280 279 280 281 281 281 281 281 281 281 280 279 278 275 274 273 272 271 271 271 271 269 269 269 269 268 268 267 268 268 267 266 265 266 265 265 264 265 266 268 268 269 269 270 270 270 267 267 268 268 268 268 267 268 269 270 270 267 270 272 272 272 273 273 273 273 274 274 274 275
282 280 280 280 279 278 278 279 279 279 280 280 280 280 278 278 275 275 276 275 273 272 272 271 269 268 268 267 267 267 266 266 267 267 265 265 265 265 265 264 263 265 265 267 267 268 269 269 269 270 269 268 267 267 269 268 267 267 268 269 270 270 271 271 271 272 273 272 271 271 273 273 273 274
279 278 277 277 277 276 276 276 277 277 278 278 279 277 278 275 273 274 273 271 271 271 270 268 267 266 266 266 266 265 265 265 265 266 264 265 264 265 265 264 265 265 264 265 266 267 268 268 269 269 269 269 269 268 267 265 267 268 268 268 269 269 270 271 271 271 272 271 270 270 270 272 273 273
277 276 275 275 275 275 275 275 276 276 277 277 277 276 276 273 273 272 272 271 271 271 269 268 266 266 265 264 264 264 263 264 264 265 265 264 264 263 264 263 264 265 265 265 265 266 267 267 268 268 269 269 269 268 268 266 266 267 268 269 269 268 270 271 271 271 271 271 270 268 269 270 272 272
276 275 274 274 275 275 275 275 276 276 276 275 274 274 273 272 271 272 271 271 270 269 268 266 265 265 264 264 264 263 263 263 263 264 265 264 264 264 264 264 264 264 264 264 265 266 267 267 267 267 267 267 267 268 271 269 266 267 268 268 269 268 268 270 270 271 271 270 270 268 267 269 270 272
275 275 274 274 274 275 275 275 276 276 275 273 272 272 270 269 271 271 270 270 268 267 266 265 264 264 264 264 264 264 263 263 263 263 263 263 263 263 264 263 264 264 264 264 265 266 267 266 267 265 264 264 264 264 266 272 272 268 267 266 268 268 269 269 270 270 269 268 269 268 266 266 268 270
275 275 275 274 274 275 274 275 275 275 274 272 271 271 270 270 270 270 269 268 267 266 265 265 264 264 264 264 263 263 263 263 262 263 263 263 263 263 263 263 263 263 263 264 265 266 266 265 266 265 264 263 262 262 264 268 270 273 270 267 267 268 268 268 268 267 268 268 268 268 267 268 268 270
276 275 275 274 274 275 275 275 274 274 272 271 271 270 269 269 269 268 267 266 266 265 265 264 264 264 263 263 263 262 262 263 263 263 263 263 262 262 262 262 263 263 264 264 265 266 266 266 266 265 265 262 262 262 262 266 267 268 271 269 267 267 268 267 266 265 266 268 268 268 269 268 268 270
277 275 274 274 274 274 274 274 273 272 271 270 269 268 268 267 265 264 264 265 265 264 264 264 263 263 263 263 263 262 261 262 261 262 263 263 263 262 263 262 262 263 263 263 265 265 266 266 266 265 265 264 262 263 264 263 263 266 269 271 269 267 267 267 266 266 266 266 267 269 270 271 272 274
278 276 275 275 274 275 274 273 272 272 270 270 269 268 267 264 264 263 264 264 263 263 263 263 263 263 262 262 262 262 262 262 262 263 263 263 263 263 262 263 263 263 263 263 264 265 265 265 266 266 266 266 266 266 266 266 266 266 267 268 272 270 267 268 266 266 266 267 268 267 266 268 266 269
277 276 275 275 275 274 273 272 272 271 269 269 269 268 265 265 264 263 263 263 262 262 262 262 262 262 262 262 262 262 261 262 262 262 262 262 262 262 262 263 263 263 263 263 264 264 264 266 267 269 268 267 267 267 265 263 262 264 265 267 270 271 272 272 269 268 266 268 267 266 265 265 265 266
277 276 275 275 274 274 273 272 271 270 269 269 268 265 265 265 264 265 264 263 261 261 261 262 262 262 262 262 262 262 262 261 261 262 262 262 262 262 262 263 262 263 263 262 264 264 267 268 267 267 266 266 265 263 261 262 261 263 264 266 267 270 271 271 272 272 270 268 266 265 265 265 267 265
276 276 275 275 274 273 272 271 271 269 268 267 265 265 265 264 264 263 262 261 261 260 260 261 262 262 262 262 262 262 262 262 262 262 262 262 262 262 262 262 263 263 264 264 265 265 266 266 267 266 266 265 264 264 261 262 263 263 263 264 265 266 267 270 271 272 272 273 273 270 268 266 264 262
275 274 274 273 272 271 270 270 268 267 266 266 265 264 263 263 263 262 261 260 260 260 261 261 261 261 261 261 261 261 261 262 262 261 261 262 262 262 262 263 263 263 264 264 264 264 265 266 266 266 264 263 264 263 262 262 262 263 263 264 264 264 264 265 266 269 270 271 272 272 273 273 273 272
274 274 272 271 270 269 269 268 266 266 265 264 263 263 263 263 262 261 261 261 261 261 260 260 260 260 260 260 260 260 261 262 261 261 262 262 263 263 263 263 263 263 263 264 263 263 265 265 265 266 264 264 264 264 263 263 263 263 263 263 262 263 264 264 264 263 264 265 268 271 272 272 273 273
Wind_Speed
11 11 12 11 9 9 7 7 7 6 6 7 6 8 9 9 9 5 8 9 8 8 10 7 8 8 8 7 7 7 7 7 7 4 4 3 3 2 5 7 7 7 6 5 5 5 5 6 6 6 7 7 8 8 8 9 9 10 11 11 12 13 13 13 14 15 16 16 16 16 16 16 17 17
11 11 10 10 9 8 7 8 8 7 8 7 7 8 8 8 10 8 7 7 9 6 9 7 6 8 8 7 6 6 6 9 6 5 4 3 4 3 6 7 7 7 7 6 6 6 6 6 6 7 7 7 8 9 9 9 10 11 12 13 13 13 14 14 15 16 16 17 17 18 18 18 18 18
10 11 12 10 10 8 9 8 7 7 7 7 7 7 6 6 8 9 7 6 5 6 9 9 6 9 9 7 6 5 5 7 7 5 5 5 4 4 7 8 8 8 7 7 7 6 7 7 7 6 7 8 9 9 9 10 10 11 12 12 12 12 13 14 15 15 16 17 18 18 19 19 20 19
10 11 13 12 11 8 8 8 8 8 7 7 7 7 7 6 6 6 6 9 5 5 6 8 7 9 9 8 8 7 6 5 8 6 6 5 5 6 6 8 9 8 8 8 7 7 7 8 7 7 7 8 8 9 9 10 10 10 10 11 11 12 12 13 14 15 16 17 18 18 19 19 19 20
11 13 13 13 12 8 10 9 9 8 8 8 7 7 7 7 7 7 8 9 5 3 2 5 7 9 10 8 9 9 8 7 7 7 6 6 6 6 5 5 8 9 9 9 9 9 9 8 7 7 7 8 9 9 9 10 9 9 10 10 11 12 13 14 15 16 16 17 17 18 18 18 18 19
11 13 13 13 11 10 11 9 9 9 9 9 9 9 9 9 9 8 9 9 7 8 6 5 6 7 9 8 10 10 9 8 7 7 6 6 6 6 5 5 5 10 10 10 11 10 9 8 8 7 7 8 9 9 10 10 10 10 10 11 11 12 13 14 15 15 16 16 17 17 17 18 18 19
12 13 14 14 11 7 11 11 10 8 9 8 9 10 9 10 9 9 9 8 8 9 8 8 8 8 9 9 10 10 7 6 6 7 7 7 6 5 6 5 5 8 11 11 11 10 9 9 8 8 8 8 9 10 10 10 10 11 11 11 11 12 13 14 15 15 15 16 16 16 17 18 19 19
13 15 14 14 13 10 12 12 11 9 8 8 8 8 8 9 9 9 9 8 7 7 9 9 9 9 9 9 7 7 6 6 7 7 7 7 7 6 6 6 6 7 11 11 11 10 10 9 9 9 9 9 9 10 10 10 11 11 11 11 11 12 13 14 14 15 15 15 16 16 17 18 19 19
11 12 14 14 11 11 12 12 11 11 12 8 7 7 7 8 7 6 8 8 6 7 9 8 8 8 7 7 8 8 8 8 8 8 8 8 8 7 7 6 6 8 11 12 11 10 10 10 10 10 10 10 10 10 11 12 12 12 12 11 12 13 13 14 14 14 14 15 16 17 17 18 18 19
12 11 12 10 13 12 13 13 12 11 13 7 7 8 7 7 7 8 8 7 7 6 8 10 10 9 10 9 8 10 10 9 9 9 8 7 7 7 7 7 6 6 6 6 7 8 9 10 10 10 9 10 11 12 13 13 13 12 12 12 13 14 14 14 14 14 15 16 16 17 17 18 20 20
14 17 18 15 17 17 14 12 11 9 9 8 10 9 8 8 8 9 9 9 10 8 8 8 9 9 8 9 9 9 10 8 8 8 9 8 8 8 7 7 6 6 6 8 9 7 5 6 6 8 10 11 12 13 13 13 13 12 12 13 14 14 14 14 14 15 16 16 17 18 19 19 21 21
13 15 15 11 15 13 10 11 6 12 10 8 10 10 8 9 9 9 9 9 8 8 8 8 10 9 9 8 6 7 9 8 8 8 8 8 9 9 8 7 6 6 6 5 5 7 7 8 9 9 9 10 10 10 11 12 11 12 13 14 14 14 14 15 15 16 16 17 18 19 20 20 21 22
12 13 14 13 11 18 21 23 20 20 18 8 9 9 10 11 8 7 7 8 8 7 8 7 8 9 9 9 10 10 11 12 10 9 8 6 5 5 5 6 7 6 6 5 5 5 4 3 3 4 5 4 5 7 9 10 11 11 11 12 14 16 17 17 17 17 17 18 19 20 20 21 21 21
13 13 11 13 23 23 22 24 25 24 24 23 11 9 10 11 7 8 8 8 9 9 9 9 9 9 10 11 13 12 11 8 6 8 8 7 6 4 4 4 5 6 6 5 4 4 3 2 4 4 5 4 3 4 4 4 6 10 14 16 16 17 18 19 18 18 18 19 20 20 21 21 21 21
12 13 14 12 18 20 21 22 25 14 14 14 14 13 8 7 17 17 10 7 9 10 9 7 8 9 10 12 11 11 10 9 10 8 8 6 5 4 3 3 3 5 5 3 2 2 1 1 4 5 5 4 4 5 6 9 12 14 15 16 17 18 19 20 20 20 20 20 20 20 21 21 22 22
11 12 12 12 11 13 16 13 14 17 19 17 19 16 11 10 11 17 13 12 10 8 7 8 10 8 9 10 11 11 11 11 10 9 8 8 7 6 4 3 1 3 3 1 1 3 2 2 4 7 5 4 5 6 9 13 14 16 17 18 19 20 21 21 21 21 21 21 20 21 21 20 21 21
12 10 9 10 9 10 20 16 13 13 13 17 19 19 16 14 19 20 18 12 4 6 10 11 10 11 10 10 10 11 11 10 10 10 8 8 7 6 4 4 2 2 4 2 2 5 6 4 5 7 7 5 5 7 10 13 15 17 18 19 21 22 23 22 22 21 21 21 21 20 20 21 21 21
16 16 12 9 10 8 12 13 14 13 12 11 11 13 10 10 14 19 20 20 15 7 8 6 9 9 7 6 8 9 10 11 10 10 8 8 7 6 5 3 2 2 2 2 1 4 6 4 5 7 7 5 6 8 11 14 15 16 19 20 22 23 24 23 22 22 21 21 21 21 21 21 21 21
17 16 15 11 11 10 12 12 14 12 11 13 15 15 14 12 12 13 14 13 12 9 8 8 6 6 7 6 8 10 9 8 7 7 7 7 6 4 3 3 4 4 3 3 3 4 3 3 5 7 6 6 8 8 11 15 16 19 21 23 23 24 24 22 21 21 22 22 21 21 21 21 21 21
11 12 13 9 11 8 10 16 21 16 11 15 16 18 15 10 10 12 13 14 13 11 10 8 7 7 8 9 9 10 10 8 7 8 7 6 6 6 5 6 5 5 5 7 7 5 5 5 6 7 6 6 8 9 9 13 17 19 22 23 24 24 23 21 22 23 23 22 22 21 21 21 21 22
11 10 10 9 9 8 10 17 24 23 17 15 17 17 16 12 8 10 10 16 18 16 15 13 14 15 15 14 15 16 17 11 10 9 9 7 8 8 7 6 6 6 5 6 7 4 5 5 6 6 7 7 9 9 10 9 13 19 21 22 23 23 22 23 24 23 22 22 22 21 21 20 20 23
9 13 21 17 12 11 11 18 25 25 20 17 17 16 15 15 11 10 9 9 11 17 16 15 16 16 16 17 17 17 17 17 13 10 10 11 9 7 8 7 5 4 4 6 7 5 5 3 4 5 6 8 9 10 10 10 10 15 16 19 22 24 24 24 24 23 23 23 22 21 20 18 18 14
9 10 15 21 17 12 12 22 25 28 22 16 17 15 14 12 13 13 13 12 11 12 11 12 12 12 16 14 12 13 19 19 15 9 8 8 9 10 9 6 3 3 6 7 9 6 4 4 5 4 3 4 6 6 7 8 8 7 7 10 12 19 21 23 23 23 24 23 21 19 18 17 15 11
7 7 8 14 23 20 20 23 26 27 28 16 13 11 12 12 14 11 11 12 10 11 12 12 14 13 14 14 13 12 14 13 13 12 9 8 8 7 6 5 6 3 1 6 8 5 1 2 4 2 3 4 4 1 6 7 7 8 8 9 11 14 17 20 20 24 24 20 19 18 17 16 14 10
9 8 8 7 17 24 23 24 26 28 29 21 12 12 12 13 10 15 11 18 20 12 11 11 13 14 11 8 7 7 8 9 9 8 9 8 7 7 6 6 6 5 2 6 7 3 3 2 3 3 4 5 6 5 6 9 10 10 9 10 11 10 10 11 10 11 14 17 17 17 17 17 16 12
9 10 9 7 14 23 24 25 26 29 29 29 17 16 20 17 21 16 7 9 10 8 12 12 12 8 8 8 8 8 8 8 8 8 8 8 7 6 7 6 6 5 4 4 6 4 3 4 4 4 4 5 8 7 8 8 9 10 10 10 10 11 11 11 10 11 10 9 8 9 11 15 17 19
9 7 8 8 16 23 25 26 27 27 29 27 19 24 25 21 25 16 8 12 9 11 12 12 12 11 8 8 8 7 7 7 7 7 7 7 7 6 6 6 6 4 3 2 4 5 4 4 3 5 5 6 8 7 8 8 6 5 8 10 11 10 10 11 11 10 9 9 9 15 17 17 17 18
8 8 9 9 18 23 25 26 26 26 27 21 29 28 27 25 23 11 9 12 9 10 12 11 11 11 7 7 7 7 7 7 8 7 7 7 7 6 6 6 6 5 4 4 3 4 5 5 5 6 7 8 9 8 8 7 8 8 10 11 10 11 10 10 10 10 9 9 9 9 9 9 8 8
9 10 14 16 20 23 24 26 26 24 28 31 27 29 29 27 14 11 12 9 9 10 13 11 11 9 9 8 7 8 9 9 8 7 6 6 5 4 2 1 0 1 2 3 4 5 6 6 6 6 7 8 9 10 9 10 7 10 10 11 9 6 8 11 10 9 9 9 9 9 9 9 9 9
16 15 16 21 22 23 21 18 15 13 13 25 28 28 28 17 13 10 11 10 12 10 9 11 11 9 7 7 8 10 10 8 8 8 8 7 5 4 3 3 3 4 5 5 6 6 7 7 7 7 8 9 10 11 10 10 11 8 9 11 13 12 8 7 9 9 9 10 9 9 10 9 10 10
14 14 16 14 18 15 23 23 19 18 15 17 18 17 17 14 10 9 9 10 13 9 10 9 7 6 7 7 8 8 8 8 8 8 7 7 6 6 5 5 4 4 5 6 6 6 6 7 8 9 9 9 9 11 11 10 13 11 10 10 10 10 8 10 11 11 11 12 11 10 10 10 10 10
11 10 14 18 14 15 16 16 13 12 12 13 12 12 12 12 10 12 14 14 10 10 10 5 7 7 8 7 7 7 7 7 8 8 7 7 6 6 5 4 5 5 4 6 6 7 7 7 8 8 9 9 10 9 8 10 12 11 12 10 10 11 10 11 12 11 11 14 15 12 9 9 10 10
7 8 10 13 14 14 14 14 13 12 12 11 11 13 13 10 10 13 12 10 8 8 9 8 8 9 8 7 7 7 7 7 8 8 7 6 6 6 6 5 4 5 5 5 5 5 6 8 9 10 9 9 10 10 9 11 11 9 11 10 8 11 11 10 11 12 12 12 13 14 14 11 11 11
10 10 12 12 13 13 14 14 14 14 13 11 11 12 10 11 13 9 9 8 9 12 12 13 9 8 9 9 8 8 9 9 8 7 8 7 6 6 6 5 5 5 4 4 4 5 5 6 7 8 9 11 11 12 12 11 12 8 9 9 9 11 11 10 10 12 11 10 13 15 15 15 13 11
13 13 12 11 11 12 12 13 14 12 11 11 9 10 11 11 10 14 12 9 9 10 10 9 7 8 8 9 9 9 9 9 8 8 7 7 7 6 5 5 5 5 5 5 4 5 5 5 5 5 6 7 8 9 16 15 10 11 8 9 9 10 11 9 10 11 11 11 11 13 15 16 17 14
12 12 12 11 10 11 11 12 11 12 11 10 10 10 10 8 12 12 12 11 11 10 8 8 8 8 8 8 8 8 8 9 8 9 9 8 7 6 5 5 5 5 5 5 5 4 4 4 4 4 5 6 6 7 4 17 19 10 8 9 7 9 11 11 11 12 12 12 11 12 12 15 16 16
14 14 13 13 11 12 10 11 11 11 11 11 11 11 12 13 10 10 10 11 11 9 7 8 7 8 8 8 8 7 8 8 7 7 7 7 6 6 6 5 6 6 6 5 5 4 4 4 4 4 5 6 6 8 8 1 9 13 10 11 11 9 11 11 12 13 13 13 13 12 13 14 17 17
12 14 15 12 11 11 9 11 9 10 10 11 11 10 9 9 10 11 10 9 12 8 8 8 8 8 8 8 8 8 7 6 7 7 6 7 7 6 6 5 6 6 6 5 5 5 5 5 5 5 4 6 7 9 10 6 3 6 9 10 11 11 10 11 12 13 14 12 12 13 13 15 17 17
12 13 14 13 12 10 10 10 10 10 11 11 11 11 11 11 9 9 12 12 12 9 8 8 8 8 8 8 7 8 8 8 7 7 7 6 6 6 6 5 5 5 5 5 5 5 6 6 6 5 6 6 7 8 8 12 12 7 9 15 13 12 13 11 13 14 13 14 13 13 14 15 20 31
12 9 10 10 9 9 11 10 10 10 11 11 11 11 13 10 9 8 13 11 10 7 8 7 9 9 7 7 7 7 6 8 8 7 7 6 6 5 5 4 5 5 5 5 6 6 6 7 6 6 6 7 9 9 11 13 15 14 12 14 22 19 14 13 14 15 16 14 14 16 17 17 18 15
10 9 9 10 9 11 11 11 10 10 10 10 10 9 8 9 10 7 11 13 11 9 8 8 8 8 7 7 7 7 7 6 6 6 6 6 5 6 6 6 4 5 5 6 6 7 7 7 6 8 7 8 9 10 11 12 13 11 8 7 9 14 18 17 15 15 17 18 16 17 18 18 16 16
8 8 7 10 11 10 11 10 10 10 10 9 10 10 12 12 11 16 13 13 9 7 7 7 7 7 7 7 6 6 6 7 6 6 6 6 5 6 6 6 5 5 6 6 7 6 5 4 4 6 8 8 7 8 10 11 13 13 12 10 9 12 17 19 21 21 19 17 17 20 18 17 15 17
7 9 10 10 9 9 10 10 10 10 10 10 11 11 12 10 11 11 9 10 10 7 7 7 7 7 7 6 5 5 5 6 6 6 6 5 5 5 5 6 5 5 5 5 6 6 6 7 7 7 7 7 7 8 11 12 13 14 14 13 12 11 11 17 21 25 27 30 29 24 21 19 17 17
7 8 8 8 8 8 9 10 10 9 10 10 11 11 9 12 11 8 8 8 9 8 8 8 7 7 7 6 5 5 4 4 5 5 5 5 5 5 4 4 5 5 5 5 5 6 6 6 6 7 7 8 8 8 11 12 13 13 14 14 14 14 16 15 14 16 19 23 26 27 31 33 31 33
7 7 8 8 8 9 9 10 10 11 9 10 8 9 9 8 9 8 8 9 7 7 7 7 7 6 6 6 6 6 4 5 5 4 4 4 4 5 5 5 5 5 5 5 5 5 5 6 6 7 8 9 8 9 11 11 13 14 14 15 15 15 16 15 17 18 15 12 13 22 25 27 29 32
Wind_Direction
206 211 203 211 212 207 195 201 207 201 196 200 192 191 196 202 220 186 209 205 196 185 196 183 190 189 185 177 172 168 191 160 170 186 189 210 252 258 292 294 294 293 292 303 300 293 289 288 292 295 300 307 307 310 317 323 325 326 328 331 334 336 336 336 336 335 330 325 320 318 317 316 314 313
203 207 204 208 217 202 189 203 202 200 199 195 192 197 204 208 215 215 208 211 186 170 189 202 169 183 185 179 175 175 191 141 177 187 208 215 239 263 279 282 280 278 282 284 279 275 277 278 277 286 296 303 305 312 319 324 328 331 333 335 336 337 338 336 333 328 324 320 318 317 315 314 313 311
204 205 206 205 216 202 196 198 199 204 198 197 189 196 197 203 215 220 220 228 170 168 178 194 180 169 178 175 168 171 188 158 187 195 210 220 201 243 257 252 258 261 264 266 267 266 269 271 275 282 295 300 307 312 319 320 325 330 332 332 333 334 333 329 324 319 318 315 314 313 312 311 310 308
207 210 212 209 210 199 186 199 200 201 201 194 193 192 189 198 207 209 214 230 185 182 182 171 163 162 168 173 177 181 192 151 178 212 212 210 196 230 230 228 246 258 258 261 262 263 259 263 266 274 284 294 302 307 308 314 319 322 323 325 327 326 321 318 316 315 313 311 311 309 309 308 307 307
205 212 214 213 208 194 193 202 198 200 196 191 197 187 186 195 193 191 207 213 177 144 160 162 163 162 164 176 186 187 191 188 196 207 217 211 218 221 228 223 226 243 254 256 258 257 256 252 258 269 279 291 296 299 302 305 310 312 315 319 319 318 316 314 314 311 310 308 307 306 306 305 306 307
201 208 213 215 203 193 202 204 201 198 192 194 194 193 190 196 191 192 194 208 184 167 164 175 154 159 176 179 184 192 193 197 195 201 209 216 219 223 219 227 222 222 239 248 251 255 254 252 257 271 279 283 289 293 297 298 304 307 309 311 311 312 311 309 307 305 304 303 303 304 305 306 307 307
194 200 210 212 196 174 200 208 206 198 197 195 199 195 191 197 192 187 199 192 196 162 178 176 170 176 182 191 182 191 199 197 197 207 214 215 214 218 224 226 229 218 230 241 249 251 253 255 258 260 265 270 275 280 287 294 297 301 302 305 306 305 303 302 300 299 300 300 301 304 305 307 306 308
193 200 203 206 193 176 197 205 200 196 195 194 201 195 194 196 193 187 191 208 197 164 158 186 184 180 174 191 186 180 185 191 201 212 219 215 220 220 219 227 233 224 228 242 251 253 252 252 252 252 257 264 269 277 287 292 294 295 298 299 299 297 295 294 294 295 298 301 303 305 307 307 309 309
201 202 206 201 177 171 193 200 196 190 191 191 188 195 185 191 190 174 190 197 201 172 172 163 181 175 180 181 182 179 182 194 204 208 212 210 213 220 222 223 228 231 234 245 249 247 245 245 246 249 254 262 272 281 288 291 292 294 295 297 294 292 292 294 298 300 301 301 302 303 305 306 306 307
218 206 205 193 172 180 194 200 188 181 190 168 186 189 180 183 179 179 185 189 193 191 177 163 162 182 176 176 187 188 193 194 191 197 204 208 215 214 218 218 212 208 209 207 212 218 229 227 233 245 257 269 279 285 288 289 291 295 296 295 293 292 294 296 297 296 298 300 303 304 306 307 307 306
217 221 222 209 209 199 203 195 177 162 158 174 191 184 175 173 174 181 185 187 189 193 178 169 173 169 183 183 184 186 193 208 206 193 184 199 202 208 213 212 197 199 209 217 219 229 242 249 254 259 269 276 283 287 290 291 295 298 296 291 290 290 291 292 294 297 301 304 307 309 310 307 303 303
219 218 214 199 193 200 203 198 146 154 172 168 184 187 173 174 177 187 183 182 187 187 189 178 176 178 174 183 190 160 177 197 214 211 201 194 183 191 200 208 200 196 204 212 197 202 215 225 232 246 267 275 280 288 293 294 295 292 288 287 288 291 293 297 302 305 307 306 305 304 300 299 299 299
221 217 216 211 209 214 219 219 216 211 204 172 181 184 167 175 176 178 175 180 184 189 186 183 174 172 179 184 178 182 190 198 201 181 188 209 188 182 199 202 198 203 205 206 203 200 197 218 240 267 277 273 284 283 282 284 281 280 285 293 296 300 302 303 303 301 299 298 297 295 294 294 294 294
223 220 214 220 221 222 221 221 221 219 213 213 212 177 161 180 167 172 169 178 186 183 186 191 175 178 191 188 191 192 197 191 167 163 182 198 192 186 221 220 201 191 197 205 204 195 178 226 270 269 274 279 276 279 280 279 293 296 295 294 296 297 297 297 294 291 291 292 290 289 291 293 294 296
224 224 222 221 220 220 222 222 221 214 208 208 210 214 225 206 170 167 170 184 171 183 196 183 184 194 189 190 187 190 181 178 179 178 179 184 179 196 199 211 143 175 188 207 221 229 191 271 292 291 284 285 283 276 271 279 286 288 288 289 291 291 290 288 285 283 285 285 287 289 290 292 294 296
226 223 220 218 215 208 212 206 209 213 215 208 212 212 207 214 237 209 189 165 171 188 182 184 203 190 193 183 180 185 177 176 175 178 176 181 185 187 202 218 210 95 131 184 274 276 292 304 288 288 280 279 276 273 277 283 288 290 289 288 286 285 282 278 278 282 283 283 285 286 287 290 292 295
225 221 215 212 209 205 209 209 207 205 206 209 208 212 210 212 209 212 226 260 296 178 172 181 185 194 185 175 189 182 177 165 162 167 174 181 184 190 199 209 183 151 133 86 313 296 303 313 293 285 286 281 272 274 272 273 278 281 282 281 279 275 272 273 277 278 279 281 283 286 288 290 291 292
233 233 227 212 210 192 191 200 204 197 195 190 193 203 205 205 209 212 216 211 215 205 209 189 186 185 172 178 168 170 164 167 167 168 170 172 175 185 194 199 196 143 108 168 268 286 280 280 273 268 273 270 270 267 269 272 274 278 276 272 269 268 268 271 274 275 278 281 284 286 289 291 292 294
232 230 231 224 215 195 185 194 189 186 178 188 202 209 210 205 199 203 204 199 199 193 197 206 199 157 159 156 159 161 166 161 154 151 149 159 167 165 177 226 241 256 237 212 206 244 282 265 248 255 264 273 269 267 269 268 270 267 264 263 263 264 265 268 272 277 280 282 284 285 288 290 292 295
217 220 220 205 215 187 187 190 191 185 171 194 202 209 210 202 201 205 206 196 192 189 188 190 165 144 156 160 158 159 154 148 139 132 110 84 91 112 167 210 223 230 229 198 205 223 240 248 259 265 270 271 272 272 268 270 266 260 257 255 256 261 263 267 275 278 279 281 282 283 287 289 291 295
216 210 195 196 205 183 194 189 194 195 179 197 202 206 205 203 198 205 195 197 191 182 183 173 150 156 160 161 159 160 159 154 153 132 128 147 157 171 194 223 223 231 204 197 197 213 241 238 241 260 266 272 273 272 266 264 261 255 251 250 254 259 264 271 274 274 275 277 278 281 284 288 291 296
217 215 218 217 214 199 200 186 195 198 191 202 204 203 200 202 201 200 181 181 186 180 178 172 166 165 171 168 166 168 167 165 154 152 162 167 161 177 202 211 209 216 198 193 186 186 223 229 238 256 272 274 261 258 260 258 249 246 247 248 256 262 266 268 269 270 271 273 277 280 283 287 292 296
222 217 220 215 213 200 186 187 198 200 196 201 202 199 196 199 199 195 177 172 170 172 171 177 171 175 175 172 171 178 176 176 166 161 139 143 158 185 202 202 198 243 235 193 176 175 224 202 244 240 280 267 262 234 241 238 227 229 248 262 262 260 261 262 264 266 267 269 271 274 280 285 292 293
209 211 204 205 211 208 199 197 201 203 200 196 192 183 195 193 202 175 172 177 170 175 178 177 177 174 175 178 181 180 182 178 161 167 149 150 163 179 189 194 194 207 130 152 167 173 208 212 241 213 227 278 289 228 221 233 240 257 262 265 265 266 265 261 261 261 261 263 268 275 280 278 278 281
216 207 206 198 203 211 210 206 204 204 205 196 179 190 196 197 164 164 177 187 179 177 170 170 172 174 169 146 130 139 146 141 152 143 148 159 169 176 189 194 199 214 183 152 159 170 199 202 231 244 252 239 252 268 250 257 264 263 262 261 265 267 265 263 262 264 262 263 265 270 274 273 274 270
222 215 202 192 192 205 210 209 206 206 205 204 197 202 201 187 174 180 154 169 172 166 171 171 173 157 150 151 147 153 157 149 144 144 146 160 171 183 192 197 194 194 203 199 186 200 207 243 234 252 257 253 263 256 269 255 259 260 255 251 257 263 261 263 262 262 268 271 272 264 264 269 273 276
220 208 198 192 187 202 208 210 208 207 207 208 207 201 199 191 186 171 156 174 167 172 175 172 169 170 156 152 154 150 154 148 140 143 150 158 167 179 190 203 216 215 210 174 181 199 210 237 244 238 255 265 274 275 263 269 267 251 262 261 258 254 256 262 265 266 268 272 269 271 274 272 271 271
220 209 205 190 187 202 208 211 209 209 209 210 211 206 198 192 186 167 167 178 173 167 170 173 171 172 161 143 154 158 148 143 142 141 147 156 168 173 186 198 212 221 231 225 216 217 222 234 246 242 248 256 261 265 275 270 269 271 274 275 267 263 255 254 270 275 271 267 270 274 276 279 275 274
225 210 198 196 200 204 207 209 212 213 213 212 211 208 202 197 187 178 175 166 156 171 180 177 175 162 168 162 145 138 130 128 127 132 139 151 158 142 126 121 136 241 232 243 237 236 232 230 238 244 247 247 251 259 263 271 275 277 275 286 281 248 267 273 265 269 280 278 276 277 274 278 280 272
222 213 199 199 202 204 206 208 213 215 214 218 217 210 199 191 191 174 170 166 173 173 164 167 172 163 139 143 142 135 134 137 150 148 149 149 149 144 157 199 241 229 231 236 234 229 229 230 233 239 248 249 248 259 261 272 275 264 271 269 275 285 254 265 289 288 282 282 280 278 281 277 274 273
227 205 197 193 199 200 205 206 207 210 208 214 217 214 197 192 179 162 168 168 172 163 165 168 148 131 136 125 129 144 143 142 149 146 150 146 159 156 170 182 215 213 216 215 226 226 228 232 235 237 244 252 255 255 265 271 276 277 270 271 280 283 291 297 291 294 299 294 290 282 279 277 280 276
224 206 202 206 205 206 208 209 207 207 209 208 212 201 191 188 167 159 156 165 175 178 172 127 114 121 139 140 138 131 129 134 144 150 144 149 151 154 162 169 213 203 203 198 214 225 235 243 245 246 245 249 255 261 263 267 269 273 275 272 275 279 284 292 294 296 301 304 302 296 287 285 281 278
202 198 193 195 199 200 202 202 201 200 200 207 199 185 187 170 151 166 168 167 163 150 143 145 143 147 138 138 131 128 130 141 155 156 141 153 144 156 171 190 196 188 193 202 205 213 217 228 235 243 251 255 256 261 268 273 261 258 269 277 283 281 287 287 291 297 306 304 298 302 301 298 294 289
204 198 194 193 193 195 198 199 199 196 196 195 186 185 166 159 165 150 148 151 156 165 171 164 147 148 143 143 146 140 144 150 153 152 146 155 155 157 176 189 209 202 202 209 209 217 221 228 237 242 244 245 245 244 246 255 264 264 263 275 277 280 282 291 290 295 300 300 304 303 304 302 295 288
200 196 195 194 190 194 194 197 197 188 186 184 175 174 171 172 159 166 165 157 158 158 158 157 137 141 145 146 147 147 148 143 145 151 148 149 161 172 180 186 205 199 202 211 217 219 224 240 243 257 257 260 261 249 219 225 254 259 263 258 265 278 288 294 294 296 299 299 295 292 295 296 296 296
203 191 194 192 193 188 194 198 192 181 179 171 171 164 166 163 168 162 166 159 158 157 147 138 146 147 146 144 146 146 145 142 146 153 157 160 167 172 180 194 200 208 207 212 222 222 226 239 249 263 279 286 284 286 270 217 221 242 261 273 275 283 289 293 294 296 299 299 295 291 288 290 293 294
209 198 197 191 189 187 189 188 189 183 164 165 166 169 171 170 169 164 149 141 155 152 140 135 138 143 138 137 134 133 136 141 143 146 151 156 157 166 173 191 200 209 211 216 216 226 225 234 246 256 274 289 286 282 275 259 238 244 258 270 279 281 290 295 299 296 290 288 290 285 285 288 287 286
208 200 199 192 189 190 183 185 179 179 162 161 161 161 165 165 161 155 147 148 156 142 144 141 140 138 143 141 140 141 140 139 138 142 151 154 158 172 179 187 191 200 209 216 213 220 225 227 235 243 257 266 284 281 294 292 272 256 247 263 277 284 285 289 287 285 287 285 281 281 282 283 283 282
206 192 193 192 191 181 184 183 177 173 164 159 159 159 161 161 148 141 153 156 155 145 138 140 142 144 143 145 140 143 143 147 148 153 153 160 166 167 175 182 195 206 201 218 217 215 222 226 231 238 243 257 262 275 291 296 286 275 268 266 272 278 276 270 281 286 283 288 286 287 284 282 282 281
211 188 180 179 169 176 182 173 171 171 164 165 160 160 163 150 147 145 157 157 148 134 136 134 142 138 136 144 142 138 136 144 148 152 153 155 163 167 174 184 193 201 199 213 216 220 219 230 232 235 249 258 272 282 286 282 282 282 272 260 252 254 263 278 284 288 288 282 289 297 295 300 295 289
212 198 179 170 172 178 176 172 167 161 163 159 152 144 140 146 145 143 157 157 149 139 137 136 139 138 140 143 147 144 141 145 142 143 144 149 155 170 185 188 198 207 207 220 218 225 227 232 240 256 264 271 278 285 285 283 282 282 276 269 256 258 261 263 271 283 284 288 292 293 293 291 294 296
206 191 157 170 179 177 170 163 157 155 156 154 150 146 157 162 161 153 149 147 124 109 117 128 133 137 138 142 146 144 141 147 146 149 151 153 162 177 189 198 201 209 206 219 221 228 242 251 259 258 263 266 272 271 271 276 283 287 289 288 285 271 273 272 265 264 271 281 287 288 287 290 290 287
194 186 186 183 172 166 161 153 152 147 147 148 147 143 145 145 149 144 137 141 144 132 133 134 138 137 143 140 142 141 138 140 144 147 150 162 167 175 183 195 202 209 218 233 243 243 250 249 247 253 256 256 257 260 267 277 283 288 293 299 298 298 285 275 270 269 265 265 265 265 269 273 286 281
176 172 166 155 159 152 146 141 134 139 144 148 150 146 140 150 150 144 142 142 146 146 143 138 139 137 135 134 130 131 139 143 144 147 156 166 180 184 194 204 213 222 231 239 244 243 242 243 249 250 257 257 258 262 270 279 284 288 292 294 298 301 297 299 290 275 265 261 260 259 263 263 260 264
160 152 143 143 143 142 134 129 138 147 145 142 138 138 148 136 138 133 140 142 133 131 127 130 132 130 130 135 142 146 148 146 142 145 157 172 186 198 206 215 224 232 236 238 244 252 247 249 256 257 257 260 257 260 268 272 279 287 289 290 292 296 300 302 301 298 289 274 248 256 263 270 274 274